[[{"header":{"parameterUnit":"m.s-1","parameterCategory":1,"la1":30.2991,"la2":30.254,"lo1":-89.0895,"lo2":-89.0444,"dy":0.0017,"dx":0.0017,"nx":28,"ny":28,"refTime":"2024-05-19T21:00:00:Z","depth":0,"parameterNumber":2,"parameterNumberName":"U-component_of_WINDS"},"data":[0,0,0,0,0,0,0,0,0,0,0,0,0,0,0,0,0,0,0,0,0,0,0,0,0,0,0,0,0,0,0,0,0,0,0,0,0,0,0,0,0,0,0,0,0,0,0,0,0,0,0,0,0,0,0,0,0,0,-1.1653,-1.1653,0,-1.1634,-1.1634,-1.1634,-1.1602,-1.1601,-1.16,-1.16,-1.158,-1.158,-1.158,0,0,0,0,0,0,0,0,0,0,0,0,0,-1.1662,-1.1662,-1.1653,-1.1653,-1.1653,-1.1634,-1.1634,-1.1634,-1.1602,-1.1601,-1.16,-1.1599,-1.158,-1.158,-1.158,0,0,0,0,0,0,0,0,0,0,0,0,0,-1.1652,-1.1662,-1.1653,-1.1634,-1.1633,-1.1634,-1.1634,-1.1634,-1.1602,-1.1601,-1.16,-1.1599,-1.158,-1.158,-1.158,-1.1599,0,0,-1.1581,-1.1581,0,0,0,0,0,0,0,0,-1.1653,-1.1652,-1.1637,-1.1636,-1.1634,-1.1619,-1.163,-1.1622,-1.1602,-1.1613,-1.16,-1.1599,-1.1594,-1.1593,-1.1591,-1.1598,-1.1597,-1.1581,-1.1581,-1.1581,-1.1581,0,0,0,0,0,0,0,-1.1654,-1.1653,-1.1646,-1.1637,-1.1635,-1.1627,-1.1625,-1.1628,-1.1609,-1.1612,-1.161,-1.1608,-1.1593,-1.1591,-1.1591,-1.1597,-1.1581,-1.1581,-1.1581,-1.1581,-1.1618,-1.1619,0,0,0,0,0,0,-1.1657,-1.1653,-1.1646,-1.1645,-1.1641,-1.1628,-1.1625,-1.1625,-1.1609,-1.1606,-1.1609,-1.1607,-1.1592,-1.1591,-1.159,-1.161,-1.1581,-1.1581,-1.1581,-1.1617,-1.1618,-1.1619,0,0,0,0,0,0,-1.1657,-1.1657,-1.1647,-1.1649,-1.1647,-1.1629,-1.1629,-1.1625,-1.1623,-1.1606,-1.1603,-1.1611,-1.1591,-1.159,-1.1597,-1.1609,-1.1581,-1.1581,-1.1616,-1.1617,-1.1619,-1.1651,0,0,0,0,0,0,-1.1658,-1.1657,-1.1664,-1.1649,-1.1647,-1.1654,-1.1629,-1.1625,-1.1624,-1.162,-1.1607,-1.1604,-1.159,-1.1597,-1.1597,-1.1609,-1.1581,-1.1615,-1.1616,-1.1618,-1.1649,-1.1654,-1.1658,0,0,0,0,0,-1.1658,-1.1674,-1.1664,-1.1663,-1.1655,-1.1655,-1.1654,-1.1637,-1.1625,-1.1631,-1.162,-1.1605,-1.1608,-1.1598,-1.1598,-1.161,-1.1614,-1.1616,-1.1618,-1.1647,-1.1653,-1.1658,0,0,0,0,0,0,-1.169,-1.1671,-1.166,-1.1672,-1.1665,-1.165,-1.1657,-1.1644,-1.1641,-1.1638,-1.1618,-1.1615,-1.1625,-1.1618,-1.1607,-1.1627,-1.1608,-1.1611,-1.1631,-1.1636,-1.164,-1.1641,-1.1581,0,0,0,0,0,-1.1698,-1.17,-1.1684,-1.1695,-1.1693,-1.1676,-1.1675,-1.1663,-1.1656,-1.1653,-1.1642,-1.1636,-1.1635,-1.1635,-1.1634,-1.1648,-1.1645,-1.1656,-1.1661,-1.1664,-1.1666,-1.1673,-1.1678,-1.1626,-1.1626,-1.1626,0,0,-1.1716,-1.1706,-1.1708,-1.1701,-1.1695,-1.1697,-1.1674,-1.1677,-1.1679,-1.1653,-1.1659,-1.1652,-1.1643,-1.1654,-1.1658,-1.1648,-1.168,-1.1667,-1.167,-1.167,-1.1676,-1.1681,-1.1686,-1.1627,-1.1627,-1.1627,0,0,-1.1748,-1.1741,-1.1749,-1.1744,-1.1734,-1.1723,-1.1725,-1.1712,-1.1706,-1.1712,-1.1693,-1.1694,-1.1694,-1.1689,-1.1686,-1.1717,-1.1703,-1.1717,-1.174,-1.1747,-1.1751,-1.1755,-1.1766,-1.177,-1.172,-1.172,-1.172,0,-1.1771,-1.1773,-1.1756,-1.1761,-1.1758,-1.1736,-1.1744,-1.174,-1.173,-1.1729,-1.1719,-1.1718,-1.1711,-1.172,-1.1728,-1.1726,-1.1728,-1.1718,-1.1752,-1.1755,-1.1758,-1.1769,-1.1773,-1.1721,-1.1721,-1.1721,-1.1721,0,-1.1802,-1.1804,-1.1812,-1.1804,-1.1802,-1.1809,-1.1793,-1.1794,-1.1782,-1.1772,-1.1779,-1.1769,-1.1765,-1.1767,-1.1755,-1.1775,-1.1769,-1.1756,-1.1737,-1.1765,-1.1775,-1.1779,-1.1724,-1.1723,-1.1723,-1.1722,0,0,-1.1853,-1.1835,-1.1839,-1.1835,-1.1823,-1.1824,-1.183,-1.1827,-1.1828,-1.1823,-1.1827,-1.1828,-1.1815,-1.1812,-1.18,-1.1807,-1.1832,-1.1792,-1.1792,-1.18,-1.1853,-1.1863,-1.1867,-1.1822,-1.1823,-1.1824,-1.1853,0,-1.1883,-1.1892,-1.1876,-1.1889,-1.1891,-1.187,-1.1875,-1.1869,-1.186,-1.186,-1.185,-1.1851,-1.1835,-1.1833,-1.1838,-1.1828,-1.1842,-1.1825,-1.1826,-1.1827,-1.1829,-1.1872,-1.1883,-1.1911,-1.1857,-1.1857,-1.1858,0,-1.1919,-1.1915,-1.1928,-1.1916,-1.1916,-1.1921,-1.1917,-1.1917,-1.191,-1.1903,-1.19,-1.1886,-1.1891,-1.1873,-1.188,-1.1869,-1.1868,-1.1864,-1.1864,-1.1863,-1.1844,-1.1872,-1.192,-1.1924,-1.1863,-1.1863,-1.1863,0,-1.1955,-1.1953,-1.1961,-1.1958,-1.1944,-1.1948,-1.1942,-1.1934,-1.1933,-1.1929,-1.1928,-1.1926,-1.1924,-1.1922,-1.1908,-1.1896,-1.1916,-1.1897,-1.1911,-1.1911,-1.1915,-1.1915,-1.1963,-1.1916,-1.1916,-1.1916,-1.1916,0,-1.199,-1.1998,-1.1977,-1.1981,-1.1991,-1.1973,-1.1983,-1.1975,-1.1968,-1.197,-1.1952,-1.1955,-1.1936,-1.1937,-1.1926,-1.1933,-1.1933,-1.1927,-1.1924,-1.1929,-1.1929,-1.1928,-1.1925,-1.1917,-1.1917,-1.1917,-1.1916,0,-1.2031,-1.2017,-1.2024,-1.201,-1.2007,-1.2014,-1.2003,-1.2006,-1.1996,-1.2,-1.2,-1.1985,-1.1985,-1.1971,-1.1968,-1.196,-1.1973,-1.1966,-1.1975,-1.1973,-1.1987,-1.1986,-1.2035,-1.2041,-1.1991,-1.1991,-1.1992,0,-1.2054,-1.206,-1.2047,-1.2048,-1.2043,-1.2044,-1.2043,-1.2026,-1.2026,-1.2018,-1.2023,-1.2022,-1.202,-1.2022,-1.201,-1.2008,-1.2001,-1.2019,-1.2001,-1.2005,-1.2001,-1.2001,-1.2001,-1.2022,-1.2023,-1.2023,-1.2024,0,-1.2096,-1.2089,-1.2088,-1.2085,-1.2084,-1.2081,-1.2076,-1.2078,-1.206,-1.206,-1.206,-1.2059,-1.2057,-1.2056,-1.2052,-1.2046,-1.2032,-1.203,-1.2033,-1.2037,-1.2042,-1.2039,-1.1985,-1.2029,-1.2028,-1.2028,-1.2027,-1.2027,-1.2129,-1.2134,-1.2125,-1.2125,-1.212,-1.2116,-1.2119,-1.2109,-1.2109,-1.2106,-1.2096,-1.2098,-1.209,-1.2083,-1.2079,-1.208,-1.2072,-1.2076,-1.2077,-1.2078,-1.2081,-1.2042,-1.208,-1.208,-1.2079,-1.2079,-1.2079,0,-1.217,-1.2164,-1.2164,-1.2158,-1.2158,-1.2145,-1.2139,-1.214,-1.2142,-1.2136,-1.2135,-1.2135,-1.2134,-1.2123,-1.2121,-1.2124,-1.2118,-1.2124,-1.2123,-1.2122,-1.2089,-1.2086,-1.2129,-1.2129,-1.2129,-1.2129,-1.2129,-1.2129,-1.2192,-1.2198,-1.219,-1.2195,-1.2188,-1.219,-1.2188,-1.2184,-1.2179,-1.2181,-1.218,-1.2173,-1.2165,-1.2162,-1.2161,-1.2157,-1.2157,-1.2166,-1.2161,-1.2129,-1.2125,-1.212,-1.2117,-1.2166,-1.2166,-1.2194,-1.2194,-1.2194]},{"header":{"parameterUnit":"m.s-1","parameterCategory":1,"la1":30.2991,"la2":30.254,"lo1":-89.0895,"lo2":-89.0444,"dy":0.0017,"dx":0.0017,"nx":28,"ny":28,"refTime":"2024-05-19T21:00:00:Z","depth":0,"parameterNumber":3,"parameterNumberName":"V-component_of_WINDS"},"data":[0,0,0,0,0,0,0,0,0,0,0,0,0,0,0,0,0,0,0,0,0,0,0,0,0,0,0,0,0,0,0,0,0,0,0,0,0,0,0,0,0,0,0,0,0,0,0,0,0,0,0,0,0,0,0,0,0,0,1.4697,1.4697,0,1.4698,1.4698,1.4698,1.4701,1.4701,1.4701,1.4701,1.4701,1.4701,1.4701,0,0,0,0,0,0,0,0,0,0,0,0,0,1.4696,1.4696,1.4697,1.4697,1.4697,1.4698,1.4698,1.4698,1.4701,1.4701,1.4701,1.4701,1.4701,1.4701,1.4701,0,0,0,0,0,0,0,0,0,0,0,0,0,1.4697,1.4696,1.4697,1.4698,1.4698,1.4698,1.4698,1.4698,1.47,1.4701,1.4701,1.4701,1.4701,1.4701,1.4701,1.4699,0,0,1.4701,1.4701,0,0,0,0,0,0,0,0,1.4697,1.4697,1.4698,1.4698,1.4698,1.4699,1.4698,1.4698,1.47,1.47,1.4701,1.4701,1.47,1.4701,1.4701,1.4699,1.4699,1.4701,1.4701,1.4701,1.4701,0,0,0,0,0,0,0,1.4697,1.4697,1.4697,1.4698,1.4698,1.4699,1.4699,1.4698,1.47,1.47,1.47,1.47,1.4701,1.4701,1.4701,1.4699,1.4701,1.4701,1.4701,1.4701,1.4697,1.4697,0,0,0,0,0,0,1.4697,1.4697,1.4697,1.4697,1.4698,1.4699,1.4699,1.4699,1.47,1.47,1.47,1.47,1.4701,1.4701,1.4701,1.4699,1.4701,1.4701,1.4701,1.4697,1.4697,1.4697,0,0,0,0,0,0,1.4697,1.4697,1.4697,1.4697,1.4697,1.4699,1.4698,1.4699,1.4699,1.47,1.47,1.47,1.4701,1.4701,1.47,1.4699,1.4701,1.4701,1.4697,1.4697,1.4697,1.4694,0,0,0,0,0,0,1.4697,1.4697,1.4696,1.4697,1.4697,1.4696,1.4698,1.4699,1.4699,1.4699,1.47,1.47,1.4701,1.47,1.47,1.4699,1.4701,1.4697,1.4697,1.4697,1.4694,1.4694,1.4694,0,0,0,0,0,1.4697,1.4695,1.4696,1.4696,1.4696,1.4696,1.4696,1.4697,1.4699,1.4698,1.4699,1.47,1.4699,1.47,1.47,1.4698,1.4697,1.4697,1.4697,1.4695,1.4694,1.4694,0,0,0,0,0,0,1.4693,1.4695,1.4696,1.4695,1.4695,1.4697,1.4696,1.4697,1.4697,1.4697,1.4699,1.4699,1.4698,1.4698,1.4699,1.4697,1.4698,1.4698,1.4696,1.4696,1.4696,1.4696,1.4701,0,0,0,0,0,1.4693,1.4692,1.4694,1.4693,1.4693,1.4694,1.4694,1.4695,1.4696,1.4696,1.4696,1.4697,1.4697,1.4696,1.4696,1.4694,1.4695,1.4694,1.4693,1.4693,1.4693,1.4692,1.4692,1.4696,1.4696,1.4696,0,0,1.4691,1.4692,1.4692,1.4692,1.4693,1.4692,1.4694,1.4694,1.4694,1.4696,1.4695,1.4695,1.4696,1.4695,1.4694,1.4695,1.4692,1.4693,1.4693,1.4692,1.4692,1.4691,1.4691,1.4696,1.4696,1.4696,0,0,1.4688,1.4688,1.4687,1.4688,1.4689,1.469,1.469,1.4691,1.4691,1.469,1.4692,1.4692,1.4691,1.4692,1.4692,1.4689,1.469,1.4689,1.4687,1.4686,1.4686,1.4686,1.4685,1.4684,1.4689,1.4688,1.4688,0,1.4685,1.4685,1.4687,1.4686,1.4686,1.4689,1.4688,1.4688,1.4689,1.4689,1.469,1.4689,1.469,1.4689,1.4688,1.4688,1.4688,1.4689,1.4686,1.4685,1.4685,1.4684,1.4684,1.4688,1.4688,1.4688,1.4688,0,1.4682,1.4682,1.4681,1.4682,1.4682,1.4681,1.4683,1.4683,1.4684,1.4685,1.4684,1.4685,1.4685,1.4685,1.4686,1.4684,1.4684,1.4686,1.4687,1.4685,1.4684,1.4684,1.4688,1.4688,1.4688,1.4688,0,0,1.4677,1.4679,1.4678,1.4679,1.468,1.468,1.468,1.468,1.468,1.468,1.468,1.468,1.4681,1.4681,1.4682,1.4681,1.4679,1.4682,1.4682,1.4682,1.4677,1.4677,1.4676,1.468,1.468,1.468,1.4677,0,1.4674,1.4673,1.4675,1.4674,1.4673,1.4676,1.4675,1.4676,1.4677,1.4677,1.4678,1.4678,1.4679,1.4679,1.4679,1.4679,1.4678,1.468,1.4679,1.4679,1.4679,1.4676,1.4675,1.4672,1.4677,1.4677,1.4677,0,1.467,1.4671,1.467,1.4671,1.4671,1.4671,1.4671,1.4671,1.4672,1.4673,1.4673,1.4674,1.4674,1.4676,1.4675,1.4676,1.4676,1.4676,1.4676,1.4676,1.4678,1.4676,1.4672,1.4671,1.4676,1.4676,1.4677,0,1.4666,1.4667,1.4666,1.4667,1.4668,1.4668,1.4669,1.467,1.467,1.467,1.467,1.4671,1.4671,1.4671,1.4673,1.4674,1.4672,1.4673,1.4672,1.4672,1.4672,1.4672,1.4668,1.4672,1.4672,1.4672,1.4672,0,1.4663,1.4662,1.4665,1.4664,1.4664,1.4665,1.4665,1.4666,1.4667,1.4666,1.4668,1.4668,1.467,1.467,1.4671,1.467,1.467,1.4671,1.4671,1.4671,1.4671,1.4671,1.4671,1.4672,1.4672,1.4672,1.4672,0,1.4658,1.466,1.466,1.4661,1.4662,1.4661,1.4663,1.4663,1.4664,1.4664,1.4664,1.4665,1.4665,1.4667,1.4667,1.4668,1.4667,1.4668,1.4667,1.4667,1.4666,1.4666,1.4662,1.4661,1.4666,1.4665,1.4665,0,1.4656,1.4655,1.4657,1.4657,1.4658,1.4658,1.4659,1.4661,1.4661,1.4662,1.4662,1.4662,1.4662,1.4662,1.4664,1.4664,1.4665,1.4663,1.4665,1.4664,1.4665,1.4665,1.4665,1.4663,1.4663,1.4663,1.4663,0,1.4651,1.4652,1.4653,1.4654,1.4654,1.4655,1.4655,1.4655,1.4658,1.4658,1.4658,1.4658,1.4659,1.4659,1.466,1.4661,1.4662,1.4662,1.4662,1.4661,1.4661,1.4661,1.4666,1.4662,1.4662,1.4662,1.4662,1.4662,1.4648,1.4648,1.4649,1.465,1.465,1.4651,1.4651,1.4652,1.4653,1.4654,1.4655,1.4655,1.4656,1.4657,1.4658,1.4658,1.4658,1.4658,1.4658,1.4658,1.4658,1.4661,1.4658,1.4658,1.4658,1.4658,1.4658,0,1.4644,1.4645,1.4645,1.4646,1.4647,1.4648,1.4649,1.465,1.465,1.4651,1.4651,1.4652,1.4652,1.4653,1.4654,1.4654,1.4654,1.4654,1.4654,1.4654,1.4657,1.4657,1.4653,1.4653,1.4653,1.4653,1.4653,1.4653,1.4641,1.4641,1.4642,1.4643,1.4644,1.4644,1.4645,1.4645,1.4646,1.4647,1.4647,1.4648,1.4649,1.465,1.465,1.4651,1.4651,1.465,1.4651,1.4653,1.4654,1.4654,1.4654,1.465,1.465,1.4648,1.4648,1.4648]}]]